{"data":{"norad_id":55830,"epoch":"2026-09-20T01:29:11.566752Z","epoch_age_seconds":55969,"freshness":"FRESH","line1":"1 55830U 23029AL  26263.06193943  .00000005  00000+0 -19012-4 0  9993","line2":"2 55830  87.9106 286.0704 0002001  88.3179 271.8183 13.19724374171415","mean_motion":13.19724374,"eccentricity":0.0002001,"inclination_deg":87.9106,"raan_deg":286.0704,"arg_perigee_deg":88.3179,"mean_anomaly_deg":271.8183,"bstar":-1.9012e-5,"rev_number":17141,"period_min":109.1136928566,"perigee_km":1184.2594055345,"apogee_km":1187.286482294,"semimajor_km":7563.9099439143,"source":"CELESTRAK","updated_at":"2026-09-20T09:00:44.784738Z"}}